Effective Sunday, March 17, 2024, the National Weather Service National Data Buoy Center will discontinue its Dial-A-Buoy Interactive Voice Response system. For more information, see Service Change Notice 24-06 (PDF).

Station PMAF1 - 8726384 - Port Manatee, FL Image indicating link to RSS feed of recent meteorological observations for station PMAF1


Conditions at PMAF1 as of
(11:00 pm EST on 02/21/2024)
0400 GMT on 02/22/2024:
     

Click on the graph icon in the table below to see a time series plot of the last five days of that observation.

5-day plot - Atmospheric Pressure Atmospheric Pressure (PRES):30.22 in
5-day plot - Pressure Tendency Pressure Tendency (PTDY):+0.00 in ( Steady )
5-day plot - Air Temperature Air Temperature (ATMP): 58.8 °F
5-day plot - Water Temperature Water Temperature (WTMP): 63.9 °F
NOS Water Level Observation Network Water Level
Previous observations
TIME
(EST)
5-day plot - Wind Direction
WDIR
 
5-day plot - Wind Speed
WSPD
kts
5-day plot - Wind Gust
GST
kts
5-day plot - Wave Height
WVHT
ft
5-day plot - Dominant Wave Period
DPD
sec
5-day plot - Average Wave Period
APD
sec
5-day plot - Mean Wave Direction
MWD
 
5-day plot - Atmospheric Pressure
PRES
in
5-day plot - Pressure Tendency
PTDY
in
5-day plot - Air Temperature
ATMP
°F
5-day plot - Water Temperature
WTMP
°F
5-day plot - Dew Point
DEWP
°F
5-day plot - Salinity
SAL
psu
5-day plot - Visibility
VIS
nmi
5-day plot - Tide (above MLLW)
TIDE
ft
2024-02-21 10:54 pm-------30.22- 59.9 63.9----
2024-02-21 10:48 pm-------30.22- 60.4 63.9----
2024-02-21 10:42 pm-------30.22- 60.3 63.7----
2024-02-21 10:36 pm-------30.22- 60.4 63.7----
2024-02-21 10:30 pm-------30.22- 60.4 63.7----
2024-02-21 10:24 pm-------30.22- 60.8 63.7----
2024-02-21 10:18 pm-------30.22- 60.8 63.7----
2024-02-21 10:12 pm-------30.22- 60.8 63.7----
2024-02-21 10:06 pm-------30.22- 60.6 63.7----
2024-02-21 10:00 pm-------30.22+0.02 60.8 63.7----
2024-02-21 09:54 pm-------30.22- 60.8 63.7----
2024-02-21 09:48 pm-------30.22- 60.8 63.9----
2024-02-21 09:42 pm-------30.22- 60.6 63.9----
2024-02-21 09:36 pm-------30.22- 60.4 63.9----
2024-02-21 09:30 pm-------30.22- 60.6 63.9----
2024-02-21 09:24 pm-------30.22- 60.6 63.9----
2024-02-21 09:18 pm-------30.22- 60.8 63.9----
2024-02-21 09:12 pm-------30.22- 60.8 63.9----
2024-02-21 09:06 pm-------30.22- 61.0 63.9----
2024-02-21 09:00 pm-------30.22+0.02 60.8 63.9----
2024-02-21 08:54 pm-------30.22- 60.8 63.9----
2024-02-21 08:48 pm-------30.21- 60.6 63.9----
2024-02-21 08:42 pm-------30.22- 60.6 63.9----
2024-02-21 08:36 pm-------30.22- 60.6 63.9----
2024-02-21 08:30 pm-------30.22- 60.6 63.9----
2024-02-21 08:24 pm-------30.22- 60.6 63.9----
2024-02-21 08:18 pm-------30.22- 60.8 63.9----
2024-02-21 08:12 pm-------30.22- 61.0 63.9----
2024-02-21 08:06 pm-------30.21- 61.0 63.9----
2024-02-21 08:00 pm-------30.21+0.02 61.2 63.9----
2024-02-21 07:54 pm-------30.21- 61.3 63.9----
2024-02-21 07:48 pm-------30.21- 61.3 63.9----
2024-02-21 07:42 pm-------30.21- 61.5 63.9----
2024-02-21 07:36 pm-------30.21- 61.7 63.9----
2024-02-21 07:30 pm-------30.20- 61.9 63.9----
2024-02-21 07:24 pm-------30.20- 61.9 63.9----
2024-02-21 07:18 pm-------30.20- 62.1 64.0----
2024-02-21 07:12 pm-------30.20- 62.2 64.0----
2024-02-21 07:06 pm-------30.20- 62.4 64.0----
2024-02-21 07:00 pm-------30.20+0.00 62.6 64.2----
2024-02-21 06:54 pm-------30.20- 62.8 64.2----
2024-02-21 06:48 pm-------30.20- 62.2 64.2----
2024-02-21 06:42 pm-------30.19- 61.7 64.4----
2024-02-21 06:36 pm-------30.19- 61.9 64.6----
2024-02-21 06:30 pm-------30.20- 61.9 64.6----
2024-02-21 06:24 pm-------30.20- 61.7 64.6----
2024-02-21 06:00 pm-------30.19-0.02 61.5 64.4----
2024-02-21 05:54 pm-------30.19- 61.9 64.2----
2024-02-21 05:48 pm-------30.19- 61.7 64.4----
2024-02-21 05:42 pm-------30.19- 61.7 64.6----
2024-02-21 05:36 pm-------30.19- 61.3 64.6----
2024-02-21 05:30 pm-------30.19- 61.3 64.6----
2024-02-21 05:24 pm-------30.19- 61.3 64.6----
2024-02-21 05:18 pm-------30.19- 61.3 64.8----
2024-02-21 05:12 pm-------30.19- 61.5 64.9----
2024-02-21 05:06 pm-------30.20- 61.3 64.9----
2024-02-21 05:00 pm-------30.19-0.03 61.3 64.9----
2024-02-21 04:54 pm-------30.20- 61.3 64.8----
2024-02-21 04:48 pm-------30.20- 61.3 64.8----
2024-02-21 04:42 pm-------30.20- 61.5 65.5----
2024-02-21 04:36 pm-------30.20- 61.5 65.5----
2024-02-21 04:30 pm-------30.20- 61.5 65.5----
2024-02-21 04:24 pm-------30.20- 61.3 65.5----
2024-02-21 04:18 pm-------30.20- 61.3 65.7----
2024-02-21 04:12 pm-------30.20- 61.2 65.3----
2024-02-21 04:06 pm-------30.20- 61.2 65.1----
2024-02-21 04:00 pm-------30.20-0.06 61.3 65.8----
2024-02-21 03:54 pm-------30.20- 61.3 66.0----
2024-02-21 03:48 pm-------30.20- 61.2 66.0----
2024-02-21 03:42 pm-------30.20- 61.3 66.2----
2024-02-21 03:36 pm-------30.20- 61.3 65.8----
2024-02-21 03:30 pm-------30.20- 61.7 63.9----
2024-02-21 03:24 pm-------30.21- 61.5 63.9----
2024-02-21 03:18 pm-------30.21- 62.4 63.7----
2024-02-21 03:12 pm-------30.21- 63.9 63.7----
2024-02-21 03:06 pm-------30.21- 63.7 63.7----
2024-02-21 03:00 pm-------30.21-0.08 63.1 64.6----
2024-02-21 02:54 pm-------30.21- 63.0 65.7----
2024-02-21 02:48 pm-------30.22- 63.1 65.3----
2024-02-21 02:42 pm-------30.22- 63.0 64.4----
2024-02-21 02:36 pm-------30.22- 62.8 63.7----
2024-02-21 02:30 pm-------30.22- 62.6 63.7----
2024-02-21 02:24 pm-------30.22- 62.4 64.2----
2024-02-21 02:18 pm-------30.22- 62.2 64.9----
2024-02-21 02:12 pm-------30.22- 62.1 65.5----
2024-02-21 02:06 pm-------30.22- 62.1 65.5----
2024-02-21 02:00 pm-------30.23-0.09 61.9 65.7----
2024-02-21 01:54 pm-------30.23- 61.9 64.6----
2024-02-21 01:48 pm-------30.23- 61.5 63.5----
2024-02-21 01:42 pm-------30.24- 61.3 63.1----
2024-02-21 01:36 pm-------30.24- 60.8 63.3----
2024-02-21 01:30 pm-------30.24- 60.8 63.5----
2024-02-21 01:24 pm-------30.25- 60.3 63.7----
2024-02-21 01:18 pm-------30.25- 60.6 63.7----
2024-02-21 01:12 pm-------30.25- 60.8 63.5----
2024-02-21 01:06 pm-------30.26- 61.0 63.5----
2024-02-21 01:00 pm-------30.26-0.05 60.8 63.5----
2024-02-21 12:54 pm-------30.26- 61.2 63.3----
2024-02-21 12:48 pm-------30.27- 61.2 63.3----
2024-02-21 12:42 pm-------30.27- 60.6 63.1----
2024-02-21 12:36 pm-------30.27- 60.3 63.3----
2024-02-21 12:30 pm-------30.27- 60.3 63.3----
2024-02-21 12:24 pm-------30.28- 59.9 63.1----
2024-02-21 12:18 pm-------30.28- 59.7 63.1----
2024-02-21 12:12 pm-------30.29- 59.4 63.1----
2024-02-21 12:06 pm-------30.29- 59.2 63.0----
2024-02-21 12:00 pm-------30.29+0.00 59.0 63.0----
2024-02-21 11:54 am-------30.29- 58.8 63.0----
2024-02-21 11:48 am-------30.30- 58.8 63.0----
2024-02-21 11:42 am-------30.30- 58.5 63.0----
2024-02-21 11:36 am-------30.30- 58.5 63.0----
2024-02-21 11:30 am-------30.31- 58.5 63.0----
2024-02-21 11:24 am-------30.31- 58.1 63.1----
2024-02-21 11:18 am-------30.31- 58.1 63.3----
2024-02-21 11:12 am-------30.31- 57.9 63.3----
2024-02-21 11:06 am-------30.31- 57.7 63.3----
2024-02-21 11:00 am-------30.31+0.03 57.7 63.3----
2024-02-21 10:54 am-------30.31- 57.4 63.3----
2024-02-21 10:48 am-------30.31- 57.4 63.3----
2024-02-21 10:42 am-------30.31- 57.2 63.3----
2024-02-21 10:36 am-------30.31- 57.0 63.5----
2024-02-21 10:30 am-------30.31- 56.7 63.5----
2024-02-21 10:24 am-------30.31- 56.5 63.1----
2024-02-21 10:18 am-------30.31- 56.3 62.4----
2024-02-21 10:12 am-------30.31- 56.3 62.2----
2024-02-21 10:06 am-------30.31- 56.1 62.2----
2024-02-21 10:00 am-------30.31+0.04- 62.4----
2024-02-21 09:54 am-------30.31-- 62.8----
2024-02-21 09:48 am-------30.31- 56.5 63.1----
2024-02-21 09:42 am-------30.31- 56.1 63.0----
2024-02-21 09:36 am-------30.30- 56.3 63.1----
2024-02-21 09:30 am-------30.30- 56.3 63.0----
2024-02-21 09:24 am-------30.30- 56.3 63.0----
2024-02-21 09:18 am-------30.30- 56.3 63.1----
2024-02-21 09:12 am-------30.30- 55.9 63.1----
2024-02-21 09:06 am-------30.30- 55.9 63.3----
2024-02-21 09:00 am-------30.30+0.04 55.6 63.3----
2024-02-21 08:54 am-------30.29- 55.6 63.3----
2024-02-21 08:48 am-------30.29- 55.9 63.3----
2024-02-21 08:42 am-------30.29- 55.9 63.3----
2024-02-21 08:36 am-------30.29- 55.6 63.3----
2024-02-21 08:30 am-------30.29- 55.0 63.3----
2024-02-21 08:24 am-------30.29- 54.5 63.1----
2024-02-21 08:18 am-------30.28- 54.9 63.1----
2024-02-21 08:12 am-------30.28- 55.2 63.1----
2024-02-21 08:06 am-------30.28- 55.9 63.1----
2024-02-21 08:00 am-------30.28+0.04 55.9 63.0----
2024-02-21 07:54 am-------30.28- 55.8 63.0----
2024-02-21 07:48 am-------30.28- 55.8 62.8----
2024-02-21 07:42 am-------30.28- 55.6 62.4----
2024-02-21 07:36 am-------30.28- 55.6 62.2----
2024-02-21 07:30 am-------30.28- 55.6 62.4----
2024-02-21 07:24 am-------30.28- 55.6 62.4----
2024-02-21 07:18 am-------30.28- 55.4 62.1----
2024-02-21 07:12 am-------30.28- 55.4 62.1----
2024-02-21 07:06 am-------30.27- 55.8 60.6----
2024-02-21 07:00 am-------30.27+0.04 55.4 58.8----
2024-02-21 06:54 am-------30.27- 55.6 57.7----
2024-02-21 06:48 am-------30.27- 55.8 57.6----
2024-02-21 06:42 am-------30.27- 55.8 57.2----
2024-02-21 06:36 am-------30.27- 55.8 57.4----
2024-02-21 06:30 am-------30.27- 56.1 57.4----
2024-02-21 06:24 am-------30.27- 56.3 57.4----
2024-02-21 06:18 am-------30.27- 56.1 57.6----
2024-02-21 06:12 am-------30.26- 55.9 57.6----
2024-02-21 06:06 am-------30.26- 55.9 57.6----
2024-02-21 06:00 am-------30.26+0.02 55.9 57.6----
2024-02-21 05:54 am-------30.26- 55.9 57.6----
2024-02-21 05:48 am-------30.26- 55.9 57.7----
2024-02-21 05:42 am-------30.25- 55.9 57.7----
2024-02-21 05:36 am-------30.25- 55.9 57.7----
2024-02-21 05:30 am-------30.25- 55.9 57.9----
2024-02-21 05:24 am-------30.25- 55.8 57.9----
2024-02-21 05:18 am-------30.25- 55.9 57.9----
2024-02-21 05:12 am-------30.25- 56.1 57.9----
2024-02-21 05:06 am-------30.25- 55.9 58.1----
2024-02-21 05:00 am-------30.25-0.01 55.8 58.1----
2024-02-21 04:54 am-------30.25- 56.3 58.1----
2024-02-21 04:48 am-------30.24- 56.1 58.3----
2024-02-21 04:42 am-------30.24- 55.9 58.3----
2024-02-21 04:36 am-------30.24- 56.3 58.3----
2024-02-21 04:30 am-------30.24- 56.1 58.5----
2024-02-21 04:24 am-------30.24- 56.3 58.5----
2024-02-21 04:18 am-------30.24- 56.5 58.5----
2024-02-21 04:12 am-------30.23- 56.5 58.5----
2024-02-21 04:06 am-------30.23- 56.5 58.6----
2024-02-21 04:00 am-------30.23-0.03 56.3 58.6----
2024-02-21 03:54 am-------30.23- 56.3 58.8----
2024-02-21 03:48 am-------30.23- 56.3 58.8----
2024-02-21 03:42 am-------30.23- 56.3 59.2----
2024-02-21 03:36 am-------30.23- 56.5 59.5----
2024-02-21 03:30 am-------30.23- 56.8 59.5----
2024-02-21 03:24 am-------30.23- 56.7 59.5----
2024-02-21 03:18 am-------30.23- 56.5 59.5----
2024-02-21 03:12 am-------30.23- 56.5 59.5----
2024-02-21 03:06 am-------30.23- 57.0 59.7----
2024-02-21 03:00 am-------30.24-0.04 57.0 59.9----
2024-02-21 02:54 am-------30.24- 56.8 59.9----
2024-02-21 02:48 am-------30.24- 56.8 60.1----
2024-02-21 02:42 am-------30.24- 54.1 60.6----
2024-02-21 02:36 am-------30.25- 53.1 60.6----
2024-02-21 02:30 am-------30.25- 52.7 60.6----
2024-02-21 02:24 am-------30.25- 52.7 60.6----
2024-02-21 02:18 am-------30.25- 52.5 60.6----
2024-02-21 02:12 am-------30.26- 52.5 60.6----
2024-02-21 02:06 am-------30.26- 53.2 60.6----
2024-02-21 02:00 am-------30.26-0.02- 60.8----
2024-02-21 01:54 am-------30.26-- 60.8----
2024-02-21 01:48 am-------30.26- 54.5 60.8----
2024-02-21 01:42 am-------30.27- 55.0 60.8----
2024-02-21 01:36 am-------30.26- 56.3 60.6----
2024-02-21 01:30 am-------30.26- 56.7 60.4----
2024-02-21 01:24 am-------30.26- 57.4 60.3----
2024-02-21 01:18 am-------30.26- 57.7 60.1----
2024-02-21 01:12 am-------30.26- 57.7 59.9----
2024-02-21 01:06 am-------30.26- 58.1 59.7----
2024-02-21 01:00 am-------30.26+0.00 58.1 59.7----
2024-02-21 12:54 am-------30.26- 58.3 59.7----
2024-02-21 12:48 am-------30.27- 58.1 59.7----
2024-02-21 12:42 am-------30.26- 58.1 60.1----
2024-02-21 12:36 am-------30.27- 57.9 60.3----
2024-02-21 12:30 am-------30.27- 57.9 60.4----
2024-02-21 12:24 am-------30.27- 58.1 60.6----
2024-02-21 12:18 am-------30.27- 58.1 60.6----
2024-02-21 12:12 am-------30.27- 57.9 60.8----
2024-02-21 12:06 am-------30.27- 58.1 61.0----
2024-02-21 12:00 am-------30.27+0.01 58.1 61.2----
2024-02-20 11:54 pm-------30.27- 58.1 61.3----
2024-02-20 11:48 pm-------30.28- 58.1 61.3----
2024-02-20 11:42 pm-------30.28- 57.9 61.3----
2024-02-20 11:36 pm-------30.28- 57.9 61.5----
2024-02-20 11:30 pm-------30.28- 58.1 61.5----
2024-02-20 11:24 pm-------30.28- 58.1 61.5----
2024-02-20 11:18 pm-------30.28- 58.1 61.7----
2024-02-20 11:12 pm-------30.28- 58.3 61.9----
2024-02-20 11:06 pm-------30.27- 58.1 62.1----
2024-02-20 11:00 pm-------30.28+0.01 58.5 62.4----
2024-02-20 10:54 pm-------30.28- 58.3 62.4----